SCP
0 0 1 1 1 1 1 2 3 3 2 2 2 2 2 2 2 2 1 1 1 1 1 1 1 1 1 1 1 1 1 1 1 1 1 1 1 1 1 1 1 1 1
0 0 1 1 1 1 1 2 2 3 3 2 2 2 2 2 2 2 1 1 1 1 1 1 1 1 1 1 1 1 1 1 1 1 1 1 1 1 1 1 1 1 1
0 0 1 1 1 1 1 1 2 2 3 3 3 2 2 2 2 2 1 1 1 1 1 1 1 1 1 1 1 1 1 1 1 1 1 1 1 1 1 1 1 1 1
0 1 1 1 1 1 1 1 1 2 2 3 3 3 2 2 2 2 1 1 1 1 1 1 1 1 1 1 1 1 1 1 1 1 1 1 1 1 1 1 1 1 1
1 1 1 1 1 1 1 1 1 1 1 2 3 3 2 2 2 1 1 1 1 1 1 1 1 1 1 1 1 1 1 1 1 1 1 1 1 1 1 1 1 1 1
1 1 1 1 1 1 1 1 1 1 1 2 3 3 2 2 1 1 1 1 1 1 1 1 1 1 1 1 1 1 1 1 1 1 0 0 1 1 1 1 1 1 1
1 1 1 1 2 2 1 1 1 1 1 1 2 3 3 2 2 1 1 1 1 1 1 0 0 0 1 1 1 1 1 1 1 0 0 0 1 1 1 1 1 1 1
1 1 1 1 1 2 1 1 1 1 1 1 1 2 3 2 2 1 1 1 1 1 0 0 0 0 0 1 1 1 1 1 0 0 0 0 1 1 1 1 1 1 1
1 1 1 1 1 1 1 1 1 1 1 1 1 2 3 3 2 2 1 1 1 1 0 0 0 0 0 0 1 1 1 1 0 0 0 0 1 1 1 1 1 1 1
1 1 1 1 1 1 1 1 1 1 1 1 1 2 3 3 3 2 1 1 1 1 0 0 0 0 0 0 1 1 1 1 0 0 0 0 0 0 1 1 1 1 1
1 1 1 1 0 0 0 0 1 1 1 1 1 2 3 3 3 2 1 1 1 1 1 0 0 0 0 0 0 1 1 0 0 0 0 0 0 0 1 1 1 1 1
1 1 1 1 1 0 0 0 0 0 0 0 1 2 3 4 3 2 1 1 1 1 0 0 0 0 0 0 0 1 1 0 0 0 0 0 0 0 1 1 1 1 1
1 1 1 1 1 0 0 0 0 0 0 0 1 2 3 4 3 2 1 1 0 0 0 0 0 0 0 0 0 1 0 0 0 0 0 0 0 0 1 1 1 1 1
1 1 1 1 1 0 0 0 0 0 0 0 1 2 3 4 3 2 1 1 0 0 0 0 0 0 0 0 0 1 0 0 0 0 0 0 0 1 1 1 1 1 1
1 1 1 1 1 1 1 1 0 0 0 0 1 2 3 4 3 2 1 1 0 0 0 0 0 0 0 0 0 1 0 0 0 0 0 0 0 1 1 1 1 1 1
1 1 1 1 1 1 1 1 1 0 0 0 1 2 3 3 2 2 1 1 0 0 0 0 0 0 0 0 0 1 0 0 0 0 0 0 0 0 1 1 1 1 1
2 1 1 1 1 1 1 1 1 1 1 1 1 2 2 2 2 2 1 1 1 0 0 0 0 0 0 0 0 0 0 0 0 0 0 0 0 0 0 1 1 1 1
2 2 1 1 1 1 1 1 1 1 1 1 1 2 2 1 1 1 1 1 1 0 0 0 0 0 0 0 0 0 0 0 0 0 0 0 0 0 0 1 1 1 1
2 2 2 1 1 2 2 1 1 1 1 1 1 1 1 1 1 1 1 1 1 0 0 0 0 0 0 0 0 0 0 0 0 0 0 0 0 0 0 0 1 1 1
2 2 2 1 1 2 2 2 1 1 1 1 1 1 1 1 1 1 1 1 0 0 0 0 0 0 0 0 0 0 0 0 0 0 0 0 0 0 0 0 0 0 1
2 2 2 2 2 2 2 2 2 1 1 1 1 0 0 0 0 0 0 0 0 0 0 0 0 0 0 0 0 0 0 0 0 0 0 0 0 0 0 0 0 0 0
1 1 2 2 1 2 2 2 2 1 1 1 1 0 0 0 0 0 0 0 0 0 0 0 0 0 0 0 0 0 0 0 0 0 0 0 0 0 0 0 0 0 0
1 2 2 2 2 2 1 1 1 1 1 1 1 0 0 0 0 0 0 0 0 0 0 0 0 0 0 0 0 0 0 0 0 0 0 0 0 0 0 0 0 0 0
2 2 2 2 2 2 1 1 1 1 1 1 1 1 0 0 0 0 0 0 0 0 0 0 0 0 0 0 0 0 0 0 0 0 0 0 0 0 0 0 0 0 0
2 2 2 2 2 2 1 1 1 1 1 1 1 1 1 0 0 0 0 0 0 0 0 0 0 0 0 0 0 0 0 0 0 0 0 0 0 0 0 0 0 0 0
2 2 2 2 2 2 1 1 1 1 1 1 1 1 1 0 0 0 0 0 0 0 0 0 0 0 0 0 0 0 0 0 0 0 0 0 0 0 0 0 0 0 0
Wind_Speed
1 1 3 4 6 7 7 8 9 9 9 9 9 10 10 11 11 11 11 11 11 11 11 11 10 10 11 11 11 12 12 12 13 13 13 13 13 14 14 14 12 9 15
3 2 4 5 6 7 8 8 9 9 9 9 9 10 10 10 11 11 11 11 10 10 10 11 11 10 10 10 10 11 12 12 12 12 11 10 11 13 13 13 12 9 14
4 2 3 6 7 8 8 9 9 9 9 9 10 10 10 10 10 10 10 10 10 10 10 10 11 10 10 9 9 10 11 12 11 11 10 5 7 13 13 13 13 14 14
5 3 3 6 8 9 9 9 9 9 9 10 10 10 10 10 10 9 10 10 10 10 10 10 10 10 10 9 9 9 10 11 10 10 5 4 5 11 13 13 13 13 13
5 3 3 7 8 9 9 9 9 9 9 9 10 10 10 10 9 9 9 9 10 9 9 9 9 9 9 8 8 9 9 10 10 7 4 4 3 10 12 12 12 13 13
5 3 3 8 9 9 9 9 9 8 8 9 9 9 9 9 9 9 8 9 9 8 8 8 8 8 8 8 7 8 8 9 8 4 4 3 3 9 11 12 12 12 12
4 3 3 7 8 9 9 9 9 8 8 8 8 9 9 8 8 8 8 8 8 8 8 7 7 7 8 8 8 8 7 7 5 4 3 3 4 10 10 11 11 11 12
5 4 3 6 7 8 8 8 8 8 8 8 8 8 8 8 8 8 8 7 8 7 7 7 7 7 7 7 7 7 6 6 5 4 3 2 6 9 10 10 11 11 11
5 4 3 4 5 6 7 8 8 8 7 7 7 8 8 8 8 7 7 7 7 6 6 6 6 6 6 7 7 6 6 6 3 2 3 2 5 8 9 9 10 10 11
4 4 3 4 4 3 4 7 8 7 8 7 7 7 7 7 6 7 6 6 6 6 6 6 6 6 6 6 6 6 6 5 2 2 1 3 5 7 8 8 9 9 10
4 3 3 3 3 3 3 5 5 6 7 7 5 7 6 3 3 3 5 6 6 6 6 6 6 6 6 6 6 6 4 2 2 1 1 4 5 6 7 8 8 9 9
3 2 2 3 3 3 3 3 2 3 3 3 3 3 2 2 2 3 5 6 6 6 6 6 6 6 5 3 4 5 2 2 1 1 1 4 5 5 6 7 8 8 9
4 3 2 2 2 3 2 2 2 1 2 2 2 2 2 2 2 3 2 3 3 5 4 4 4 3 3 2 2 2 2 2 1 1 1 4 5 6 6 6 7 8 8
4 3 2 2 2 2 2 2 2 1 1 1 1 2 2 1 2 1 1 2 2 2 2 2 2 3 3 2 2 2 2 2 2 1 1 3 4 5 6 6 6 8 8
4 3 3 3 3 2 2 1 2 1 1 1 1 1 2 1 1 1 1 1 2 1 1 1 2 2 2 2 2 2 2 2 2 2 1 2 3 4 6 6 6 7 8
5 4 3 3 3 3 2 2 1 1 1 1 1 1 1 1 1 1 1 1 1 1 1 1 1 1 1 1 2 1 1 1 2 2 2 1 1 4 5 6 7 7 8
6 5 4 4 3 3 2 2 2 1 1 1 1 1 1 1 1 1 0 0 0 1 1 1 1 1 1 1 2 1 1 1 1 1 2 1 1 1 3 5 5 7 7
5 5 4 3 3 3 2 2 1 1 0 0 0 0 1 1 0 0 0 0 0 0 0 1 1 1 1 1 1 1 1 0 0 0 1 1 1 0 1 3 3 5 6
4 4 4 3 3 3 2 2 1 1 0 0 0 0 0 0 0 0 0 0 0 0 0 0 0 0 0 1 1 1 1 0 0 0 0 0 0 0 0 1 1 2 4
3 3 3 3 3 2 2 2 1 1 0 1 0 0 0 0 0 0 0 1 0 0 0 0 0 0 0 0 0 1 1 1 0 0 1 0 0 0 0 1 1 1 2
2 2 3 3 2 2 2 1 1 1 1 0 1 0 0 0 0 1 0 0 0 1 1 1 1 0 0 0 1 1 2 1 0 1 1 1 1 1 1 1 1 1 1
2 2 3 3 3 2 2 2 2 2 1 1 1 1 0 0 0 0 0 0 1 1 1 1 1 1 1 1 1 1 0 1 1 1 1 1 1 1 1 2 2 2 1
2 2 2 2 2 2 2 1 1 1 0 0 1 1 1 1 1 1 1 1 1 1 2 2 2 2 2 1 1 2 2 2 1 2 1 0 0 0 1 2 2 2 2
2 2 2 2 2 2 2 2 3 2 2 2 2 2 2 1 1 1 1 1 1 1 2 2 2 1 2 2 1 1 1 2 2 1 2 1 1 1 1 2 2 2 2
1 1 1 2 1 1 2 3 3 2 2 1 1 2 2 2 2 2 2 2 2 1 2 2 2 2 2 2 2 1 1 0 1 2 2 2 2 2 1 1 1 2 2
1 1 1 0 1 1 1 2 3 3 2 2 2 2 2 2 2 2 2 2 2 2 2 3 2 2 2 2 2 2 2 2 2 2 2 2 2 2 2 2 1 2 2
Wind_Direction
207 251 120 100 102 98 95 95 93 88 86 84 82 78 75 74 73 73 73 71 71 71 69 69 72 74 76 79 84 85 86 88 87 86 85 87 90 91 90 87 84 82 87
163 167 109 94 103 102 96 92 90 87 84 83 82 79 76 73 72 71 70 70 70 71 70 70 72 72 74 78 82 87 89 91 90 86 81 82 90 93 92 90 89 90 91
125 115 111 95 98 101 96 92 88 85 82 80 78 78 76 75 73 70 68 68 66 67 70 72 73 71 73 76 80 86 91 92 93 89 82 75 90 96 97 94 92 92 92
118 104 101 96 98 101 97 93 89 84 81 79 77 77 77 76 73 70 67 67 65 61 64 68 72 71 68 72 77 81 89 93 92 89 75 68 84 100 101 99 96 94 93
105 95 109 99 98 98 100 94 93 87 82 81 79 76 74 73 73 71 66 66 65 61 60 65 70 71 67 66 73 79 86 90 89 83 70 67 76 102 103 101 99 97 96
105 95 108 99 100 97 95 96 91 92 87 83 80 77 74 71 69 66 65 65 64 61 60 63 66 68 68 65 70 79 84 88 82 74 68 70 82 101 103 102 101 99 98
111 100 102 101 100 97 92 91 91 87 88 84 79 78 76 72 67 64 64 65 64 62 60 61 64 64 64 63 69 76 79 87 85 78 69 67 94 105 105 104 102 101 100
115 104 102 101 98 96 93 89 83 81 82 82 79 74 73 71 66 64 63 63 63 60 59 56 59 59 60 60 67 71 71 91 94 86 75 72 101 111 111 108 106 105 102
102 93 78 88 95 93 87 83 78 73 74 79 76 71 66 65 65 62 59 57 59 60 57 54 51 52 56 54 59 70 76 84 85 82 95 87 104 115 116 113 112 110 107
91 86 82 80 82 87 88 82 77 72 66 68 71 65 59 58 60 58 53 51 51 55 56 55 50 42 49 49 51 63 78 80 88 84 91 109 114 124 122 120 119 118 114
99 90 97 94 86 86 88 81 76 73 64 59 62 60 52 47 53 55 49 47 46 47 47 51 49 41 40 43 46 49 58 73 94 90 108 117 122 130 133 129 127 125 121
142 134 116 114 105 92 85 75 66 65 61 54 59 54 48 46 44 45 39 40 37 32 31 35 39 40 31 22 34 42 38 43 80 99 119 132 136 132 137 134 133 132 129
156 141 127 129 117 103 99 91 72 58 58 61 64 60 58 47 43 39 34 29 24 24 19 17 24 21 21 17 29 44 34 27 40 49 117 137 148 145 142 139 143 140 137
151 150 136 130 123 113 108 100 95 80 62 63 75 78 80 69 49 42 41 25 23 19 16 12 14 19 19 17 34 53 42 33 21 16 100 133 155 162 160 157 154 156 149
154 154 155 140 135 131 114 112 96 90 86 83 86 70 87 95 84 58 44 30 14 19 25 16 17 20 16 13 26 54 51 39 27 14 26 128 158 168 171 170 169 164 160
164 167 164 151 143 134 125 123 120 88 67 120 103 75 88 98 110 99 72 51 9 360 1 24 23 20 8 17 22 37 62 40 39 21 15 20 142 171 179 178 175 169 164
166 162 163 154 139 138 134 123 107 103 91 130 117 96 86 85 107 117 104 94 325 341 1 36 39 32 27 21 15 15 43 48 49 29 15 8 345 150 170 178 178 173 167
152 153 156 144 138 138 137 120 112 89 92 150 101 108 84 58 40 73 138 294 287 336 58 57 76 40 19 10 357 349 351 27 48 58 23 23 11 32 137 147 159 169 168
151 150 150 138 143 147 129 108 97 89 321 163 118 152 165 150 12 3 250 278 277 135 117 83 50 125 71 9 337 347 348 341 234 119 120 352 32 360 147 128 127 148 165
135 139 141 133 130 125 108 93 99 99 19 17 335 220 183 159 82 44 352 313 282 154 139 128 154 33 178 195 46 23 348 302 246 195 211 224 176 157 153 146 156 192 177
100 130 143 138 141 135 140 150 163 204 227 266 279 294 218 154 118 95 0 332 291 217 200 177 172 134 268 110 83 47 2 341 247 222 218 204 201 188 165 167 165 169 220
151 166 166 163 165 171 176 180 187 193 222 236 278 325 270 228 226 195 108 275 277 240 209 198 172 187 241 186 147 130 63 337 349 311 256 208 219 187 180 184 166 164 189
173 188 188 187 177 182 176 155 124 88 47 346 298 274 280 253 238 226 224 242 250 223 213 214 201 185 202 238 200 165 164 203 286 308 302 261 287 227 208 199 180 177 181
229 208 195 185 179 181 175 175 173 187 213 240 233 253 283 274 251 228 220 237 240 235 226 222 217 218 196 216 232 232 203 162 170 233 295 303 294 248 244 226 195 186 180
261 244 210 191 176 183 188 190 196 221 236 261 249 253 262 269 251 231 217 219 231 240 235 234 226 215 214 217 217 207 199 238 195 180 229 270 299 273 254 244 220 186 183
340 349 323 222 231 213 205 204 206 224 235 233 245 242 253 262 256 241 231 222 231 240 240 235 228 216 222 226 229 220 199 195 196 187 206 233 253 275 281 248 233 212 192